This is the latest recevied weather packets stored in our database for station/object KM4RT-13. If no packets are shown the sender has not sent any weather packets the latest 10 day(s).
| Time | Temp. | Humidity | Pressure | Rain* | Wind** | Luminosity | Snow |
|---|---|---|---|---|---|---|---|
| 1777939390 | 25° C | 44% | 1006.9 hPa | 0 mm | - | 36 W/m² | - |
| 1777939086 | 25° C | 43% | 1006.9 hPa | 0 mm | - | 40 W/m² | - |
| 1777938783 | 25° C | 43% | 1006.9 hPa | 0 mm | - | 55 W/m² | - |
| 1777938480 | 25° C | 42% | 1007 hPa | 0 mm | - | 62 W/m² | - |
| 1777938178 | 25° C | 42% | 1007 hPa | 0 mm | - | 68 W/m² | - |
| 1777937874 | 25° C | 41% | 1007 hPa | 0 mm | - | 73 W/m² | - |
| 1777937569 | 25° C | 41% | 1007.1 hPa | 0 mm | - | 57 W/m² | - |
| 1777937266 | 25.56° C | 40% | 1007 hPa | 0 mm | - | 58 W/m² | - |
| 1777936963 | 25.56° C | 40% | 1007.1 hPa | 0 mm | - | 94 W/m² | - |
| 1777936660 | 25.56° C | 40% | 1007 hPa | 0 mm | - | 108 W/m² | - |
| 1777936357 | 25.56° C | 42% | 1007.4 hPa | 0 mm | - | 81 W/m² | - |
| 1777936052 | 25.56° C | 42% | 1007 hPa | 0 mm | - | 129 W/m² | - |
| 1777935751 | 25.56° C | 41% | 1006.9 hPa | 0 mm | - | 144 W/m² | - |
| 1777935450 | 25.56° C | 41% | 1007.1 hPa | 0 mm | - | 153 W/m² | - |
| 1777935146 | 25.56° C | 41% | 1007.1 hPa | 0 mm | - | 132 W/m² | - |
| 1777934843 | 25.56° C | 41% | 1007 hPa | 0 mm | - | 178 W/m² | - |
| 1777934540 | 26.11° C | 41% | 1007 hPa | 0 mm | - | 170 W/m² | - |
| 1777934236 | 25.56° C | 41% | 1007 hPa | 0 mm | - | 200 W/m² | - |
| 1777933932 | 26.11° C | 40% | 1007.1 hPa | 0 mm | - | 176 W/m² | - |
| 1777933629 | 26.11° C | 40% | 1007 hPa | 0 mm | - | 66 W/m² | - |
| 1777933326 | 26.11° C | 41% | 1007.1 hPa | 0 mm | - | 57 W/m² | - |
| 1777933024 | 26.11° C | 41% | 1007 hPa | 0 mm | - | 59 W/m² | - |
| 1777932721 | 26.11° C | 41% | 1006.9 hPa | 0 mm | - | 60 W/m² | - |
| 1777932416 | 26.11° C | 41% | 1007.1 hPa | 0 mm | - | 60 W/m² | - |
| 1777932115 | 26.11° C | 40% | 1007.1 hPa | 0 mm | - | 63 W/m² | - |
* Rain latest hour (hover to see other rain measurements)
** Current wind speed in m/s (hover to see current wind gust speed)